Location: Holyhead Bay
(53.3667°N, 4.6667°W)
Time: 23:46:45
(UTC+00:00)

IRIDIUM 33 DEB - Pass Details

Date: 02 October 2021
Orbit: 583 x 600 km, 86.4° (Epoch: 15 October)

Event Time Altitude Azimuth Distance (km) Brightness Sun altitude
Rises 03:07:54 0° 3° (N) 2,847 ? -28.2°
Reaches altitude 10° 03:10:27 10° 17° (NNE) 1,936 ? -27.9°
Maximum altitude 03:13:58 25° 73° (ENE) 1,225 ? -27.4°
Drops below altitude 10° 03:17:27 10° 129° (SE) 1,914 ? -27.0°
Sets 03:19:56 0° 143° (SE) 2,807 ? -26.7°
